Butler, GA

11:16 AM EDT on October 16, 2019 (GMT -0400)
Butler

Weather History for K6A1 - September, 2019

Change the Weather History Date:

Tuesday, September 17, 2019

  Actual Average (KMCN) Record (KMCN)
Temperature  
Mean Temperature 84 °F -  
Max Temperature 100 °F 86 °F 103 °F (2019)
Min Temperature 69 °F 65 °F 49 °F (2001)
Cooling Degree Days 20    
Growing Degree Days 34 (Base 50)    
Moisture  
Dew Point 57 °F    
Average Humidity 43    
Maximum Humidity 72    
Minimum Humidity 18    
Precipitation  
Precipitation 0.00 in - - ()
Sea Level Pressure  
Sea Level Pressure 29.98 in    
Wind  
Wind Speed 3 mph ()    
Max Wind Speed 9 mph    
Max Gust Speed 10 mph    
Visibility 10.0 miles    
Events      
Averages and records for this station are not official NWS values.
T = Trace of Precipitation, MM = Missing Value Source: Averaged Metar Reports

Daily Weather History Graph

Daily Weather History Graph

Search for Another Location

Airport or City:

Astronomy

Sep. 17, 2019 Rise Set
Actual Time 7:21 AM EDT 7:40 PM EDT
Civil Twilight 6:57 AM EDT 8:05 PM EDT
Nautical Twilight 6:28 AM EDT 8:34 PM EDT
Astronomical Twilight 5:59 AM EDT 9:03 PM EDT
Moon 9:53 PM EDT (9/17) 10:16 AM EDT (9/17)
Length of Visible Light 13h 08m
Length of Day
12h 18m
Waning Gibbous, 89% of the Moon is Illuminated
Sep 17
Waning Gibbous
Sep 21
Last Quarter
Sep 28
New
Oct 5
First Quarter
Oct 13
Full

Hourly Weather History & Observations

Time (EDT) Temp. Heat Index Dew Point Humidity Pressure Visibility Wind Dir Wind Speed Gust Speed Precip Events Conditions
12:15 AM 77.0 °F - 58.1 °F 52% 30.00 in 10.0 mi West 4.6 mph - N/A   Unknown
12:35 AM 79.0 °F - 58.6 °F 50% 30.00 in 10.0 mi WSW 4.6 mph - N/A   Unknown
12:55 AM 78.8 °F - 58.8 °F 50% 30.00 in 10.0 mi WSW 4.6 mph - N/A   Unknown
1:15 AM 77.0 °F - 59.2 °F 54% 30.00 in 10.0 mi West 4.6 mph - N/A   Unknown
1:35 AM 75.4 °F - 59.5 °F 58% 30.00 in 10.0 mi West 4.6 mph - N/A   Unknown
1:55 AM 76.1 °F - 59.2 °F 56% 29.99 in 10.0 mi Calm Calm - N/A   Unknown
2:15 AM 73.6 °F - 59.7 °F 62% 29.99 in 10.0 mi Calm Calm - N/A   Unknown
2:35 AM 72.9 °F - 59.9 °F 64% 29.99 in 10.0 mi Calm Calm - N/A   Unknown
2:55 AM 71.8 °F - 60.3 °F 67% 29.99 in 10.0 mi Calm Calm - N/A   Unknown
3:15 AM 71.4 °F - 59.9 °F 67% 29.98 in 10.0 mi Calm Calm - N/A   Unknown
3:35 AM 72.5 °F - 58.6 °F 62% 29.98 in 10.0 mi Calm Calm - N/A   Unknown
3:55 AM 70.7 °F - 60.1 °F 69% 29.98 in 10.0 mi Calm Calm - N/A   Unknown
4:15 AM 72.9 °F - 58.5 °F 60% 29.97 in 10.0 mi Calm Calm - N/A   Unknown
4:35 AM 69.4 °F - 59.9 °F 72% 29.97 in 10.0 mi Calm Calm - N/A   Unknown
4:55 AM 71.6 °F - 59.5 °F 66% 29.97 in 10.0 mi WSW 3.5 mph - N/A   Unknown
5:15 AM 70.9 °F - 59.9 °F 68% 29.97 in 10.0 mi West 4.6 mph - N/A   Unknown
5:35 AM 69.8 °F - 59.9 °F 71% 29.98 in 10.0 mi Calm Calm - N/A   Unknown
5:55 AM 72.0 °F - 59.5 °F 65% 29.98 in 10.0 mi West 3.5 mph - N/A   Unknown
6:15 AM 72.3 °F - 59.5 °F 64% 29.99 in 10.0 mi West 3.5 mph - N/A   Unknown
6:35 AM 69.6 °F - 59.7 °F 71% 29.99 in 10.0 mi Calm Calm - N/A   Unknown
6:55 AM 69.8 °F - 59.9 °F 71% 30.00 in 10.0 mi West 3.5 mph - N/A   Unknown
7:15 AM 71.2 °F - 59.5 °F 66% 30.00 in 10.0 mi Calm Calm - N/A   Unknown
7:35 AM 70.7 °F - 59.5 °F 68% 30.01 in 10.0 mi Calm Calm - N/A   Unknown
7:55 AM 70.0 °F - 60.1 °F 71% 30.02 in 10.0 mi NW 3.5 mph - N/A   Unknown
8:15 AM 75.2 °F - 59.2 °F 57% 30.02 in 10.0 mi NNW 3.5 mph - N/A   Unknown
8:35 AM 77.9 °F - 59.2 °F 52% 30.02 in 10.0 mi NNW 4.6 mph - N/A   Unknown
8:55 AM 79.7 °F - 59.9 °F 51% 30.02 in 10.0 mi NNW 5.8 mph - N/A   Unknown
9:15 AM 80.6 °F 81.2 °F 59.7 °F 49% 30.03 in 10.0 mi North 5.8 mph - N/A   Unknown
9:35 AM 81.7 °F 82.0 °F 59.4 °F 47% 30.04 in 10.0 mi North 4.6 mph - N/A   Unknown
9:55 AM 84.6 °F 83.9 °F 57.7 °F 40% 30.04 in 10.0 mi NNE 5.8 mph - N/A   Unknown
10:15 AM 86.0 °F 85.2 °F 58.5 °F 39% 30.04 in 10.0 mi NNE 3.5 mph - N/A   Unknown
10:35 AM 87.1 °F 86.1 °F 57.7 °F 37% 30.04 in 10.0 mi NNE 4.6 mph - N/A   Unknown
10:55 AM 89.2 °F 87.9 °F 57.2 °F 34% 30.04 in 10.0 mi NNE 3.5 mph - N/A   Unknown
11:15 AM 91.8 °F 90.3 °F 57.0 °F 31% 30.04 in 10.0 mi NE 3.5 mph - N/A   Unknown
11:35 AM 91.8 °F 90.0 °F 55.9 °F 30% 30.04 in 10.0 mi North 6.9 mph - N/A   Unknown
11:55 AM 92.7 °F 90.9 °F 55.9 °F 29% 30.03 in 10.0 mi Calm Calm - N/A   Unknown
12:15 PM 93.9 °F 91.7 °F 53.8 °F 26% 30.03 in 10.0 mi North 5.8 mph - N/A   Unknown
12:35 PM 94.3 °F 92.1 °F 54.1 °F 26% 30.02 in 10.0 mi Calm Calm - N/A   Unknown
12:55 PM 95.7 °F 93.4 °F 53.6 °F 24% 30.02 in 10.0 mi ENE 5.8 mph - N/A   Unknown
1:15 PM 96.6 °F - 52.0 °F 22% 30.01 in 10.0 mi Calm Calm - N/A   Unknown
1:35 PM 97.0 °F - 50.4 °F 21% 30.00 in 10.0 mi SSW 4.6 mph - N/A   Unknown
1:55 PM 97.9 °F - 47.8 °F 18% 29.99 in 10.0 mi NNW 5.8 mph - N/A   Unknown
2:15 PM 97.9 °F - 49.1 °F 19% 29.99 in 10.0 mi East 3.5 mph - N/A   Unknown
2:35 PM 99.1 °F - 49.3 °F 18% 29.98 in 10.0 mi NNE 6.9 mph - N/A   Unknown
2:55 PM 100.0 °F - 49.6 °F 18% 29.97 in 10.0 mi West 6.9 mph - N/A   Unknown
3:15 PM 99.0 °F - 50.4 °F 19% 29.95 in 10.0 mi Calm Calm - N/A   Unknown
3:35 PM 97.2 °F - 51.1 °F 21% 29.95 in 10.0 mi North 5.8 mph - N/A   Unknown
3:55 PM 98.6 °F - 51.3 °F 20% 29.94 in 10.0 mi West 5.8 mph - N/A   Unknown
4:15 PM 99.7 °F - 51.8 °F 20% 29.93 in 10.0 mi NNW 6.9 mph - N/A   Unknown
4:35 PM 99.0 °F - 52.3 °F 21% 29.93 in 10.0 mi NNW 9.2 mph - N/A   Unknown
4:55 PM 98.4 °F - 52.9 °F 22% 29.93 in 10.0 mi NW 5.8 mph 10.4 mph N/A   Unknown
5:15 PM 98.8 °F 96.6 °F 53.6 °F 22% 29.92 in 10.0 mi NNW 6.9 mph - N/A   Unknown
5:35 PM 97.3 °F 95.1 °F 53.8 °F 23% 29.93 in 10.0 mi North 6.9 mph - N/A   Unknown
5:55 PM 96.1 °F 94.1 °F 54.5 °F 25% 29.93 in 10.0 mi North 4.6 mph - N/A   Unknown
6:15 PM 95.2 °F 93.3 °F 55.0 °F 26% 29.93 in 10.0 mi NNW 3.5 mph - N/A   Unknown
6:35 PM 95.7 °F 94.0 °F 56.1 °F 26% 29.93 in 10.0 mi NNW 5.8 mph - N/A   Unknown
6:55 PM 95.9 °F 94.2 °F 56.3 °F 26% 29.93 in 10.0 mi NW 5.8 mph - N/A   Unknown
7:15 PM 95.0 °F 93.7 °F 57.2 °F 28% 29.93 in 10.0 mi NNW 4.6 mph - N/A   Unknown
7:35 PM 94.3 °F 93.0 °F 57.0 °F 29% 29.93 in 10.0 mi NW 4.6 mph - N/A   Unknown
7:55 PM 92.8 °F 91.4 °F 57.2 °F 30% 29.93 in 10.0 mi NW 3.5 mph - N/A   Unknown
8:15 PM 91.0 °F 89.7 °F 57.7 °F 32% 29.93 in 10.0 mi WNW 3.5 mph - N/A   Unknown
8:35 PM 90.5 °F 89.3 °F 58.1 °F 33% 29.94 in 10.0 mi WNW 4.6 mph - N/A   Unknown
8:55 PM 89.6 °F 88.6 °F 58.5 °F 35% 29.94 in 10.0 mi NW 3.5 mph - N/A   Unknown
9:15 PM 88.7 °F 87.8 °F 58.8 °F 36% 29.95 in 10.0 mi NW 4.6 mph - N/A   Unknown
9:35 PM 88.2 °F 87.3 °F 59.0 °F 37% 29.95 in 7.0 mi NW 3.5 mph - N/A   Unknown
9:55 PM 87.3 °F 86.5 °F 59.0 °F 38% 29.96 in 10.0 mi Calm Calm - N/A   Unknown
10:15 PM 86.4 °F 85.9 °F 59.4 °F 40% 29.97 in 10.0 mi Calm Calm - N/A   Unknown
10:35 PM 85.1 °F 84.8 °F 59.7 °F 42% 29.97 in 10.0 mi Calm Calm - N/A   Unknown
10:55 PM 83.8 °F 84.0 °F 60.3 °F 45% 29.97 in 10.0 mi WNW 4.6 mph - N/A   Unknown
11:15 PM 82.9 °F 83.3 °F 60.8 °F 47% 29.97 in 10.0 mi Calm Calm - N/A   Unknown
11:35 PM 80.4 °F 81.4 °F 61.5 °F 52% 29.97 in 10.0 mi Calm Calm - N/A   Unknown
11:55 PM 79.5 °F - 61.3 °F 54% 29.97 in 10.0 mi Calm Calm - N/A   Unknown